CST,Max TemperatureF,Mean TemperatureF,Min TemperatureF,Max Dew PointF,MeanDew PointF,Min DewpointF,Max Humidity, Mean Humidity, Min Humidity, Max Sea Level PressureIn, Mean Sea Level PressureIn, Min Sea Level PressureIn, Max VisibilityMiles, Mean VisibilityMiles, Min VisibilityMiles, Max Wind SpeedMPH, Mean Wind SpeedMPH, Max Gust SpeedMPH,PrecipitationIn, CloudCover, Events, WindDirDegrees
2011-11-1,73,62,50,43,39,33,64,46,27,30.25,30.18,30.13,10,8,1,10,5,16,0.00,1,,145
2011-11-2,75,60,44,54,49,41,89,63,44,30.21,30.10,29.96,10,10,7,12,5,18,0.00,1,,164
2011-11-3,68,56,46,59,43,35,94,70,44,30.15,30.07,29.95,10,9,2,18,11,28,0.28,6,Rain,277
2011-11-4,57,48,42,47,41,35,83,72,62,30.24,30.19,30.14,10,10,10,6,3,,0.00,7,,331
2011-11-5,68,56,46,48,46,44,100,82,47,30.20,30.14,30.04,10,7,0,8,2,,0.00,3,Fog,79
2011-11-6,66,58,51,56,51,46,89,73,60,30.20,30.15,30.10,10,10,9,10,4,,0.00,6,,132
2011-11-7,77,68,59,61,57,54,83,69,54,30.22,30.13,30.06,10,10,10,9,6,17,0.00,3,,151
2011-11-8,79,70,61,66,63,55,94,79,56,30.06,29.96,29.88,10,9,4,15,8,23,0.39,7,Rain-Thunderstorm,178
2011-11-9,66,54,42,61,43,34,87,68,43,30.30,30.14,29.97,10,10,10,14,8,21,0.00,2,,299
2011-11-10,60,48,37,35,28,18,82,52,21,30.38,30.30,30.25,10,10,10,13,6,20,0.00,0,,297
2011-11-11,66,54,41,34,31,27,65,44,23,30.24,30.16,30.10,10,10,10,14,7,21,0.00,0,,223
2011-11-12,70,58,45,53,45,35,76,61,47,30.14,30.05,29.96,10,10,10,15,9,24,0.00,0,,188
2011-11-13,77,69,61,62,59,53,83,70,60,29.96,29.91,29.85,10,10,10,17,11,29,0.00,5,,189
2011-11-14,79,74,68,64,63,61,84,72,56,29.92,29.87,29.81,10,10,10,17,12,24,0.00,5,,200
2011-11-15,79,72,64,65,64,61,94,83,62,29.85,29.79,29.73,10,10,9,16,8,24,0.00,5,,201
2011-11-16,64,57,48,63,54,35,96,83,51,30.24,29.86,29.71,10,7,1,12,5,28,1.07,8,Rain-Thunderstorm,13
2011-11-17,54,43,32,38,29,22,88,62,29,30.44,30.35,30.25,10,10,10,9,3,22,0.00,0,,18
2011-11-18,59,44,28,31,27,23,92,55,28,30.35,30.23,30.12,10,10,10,10,3,,0.00,0,,165
2011-11-19,73,58,44,59,50,30,86,72,58,30.11,30.06,29.98,10,10,10,12,8,20,0.00,6,,165
2011-11-20,73,70,66,67,65,60,93,85,76,30.16,30.11,30.06,10,8,5,12,8,21,0.00,5,,175
2011-11-21,75,70,66,66,65,62,94,84,71,30.15,30.06,29.95,10,10,6,12,8,18,0.00,4,Rain,178
2011-11-22,69,61,53,66,61,50,94,90,82,30.13,29.94,29.87,10,8,1,14,8,22,0.27,7,Rain-Thunderstorm,247
2011-11-23,55,50,46,48,47,46,97,84,74,30.34,30.26,30.15,10,10,8,8,3,,0.00,6,,20
2011-11-24,60,51,42,48,45,41,100,86,64,30.39,30.31,30.25,10,7,1,6,1,,0.00,5,,77
2011-11-25,66,52,39,53,46,37,100,84,51,30.25,30.17,30.03,10,6,0,10,2,18,0.01,1,Fog-Rain,166
2011-11-26,72,66,55,64,58,53,96,89,73,30.04,29.93,29.84,10,8,0,15,6,28,1.15,8,Fog-Rain-Thunderstorm,170
2011-11-27,53,48,42,52,41,33,94,86,70,30.13,30.05,29.94,10,8,2,10,7,18,0.13,8,Rain,326
2011-11-28,42,39,36,36,32,30,87,76,62,30.08,30.00,29.91,10,10,6,9,5,18,0.03,6,Rain,296
2011-11-29,57,46,35,32,29,22,79,60,25,30.18,30.02,29.90,10,10,10,12,6,17,0.00,2,,288
2011-11-30,54,42,30,31,26,20,89,61,28,30.27,30.21,30.17,10,10,10,5,1,,0.00,0,,28